{"data":{"norad_id":67845,"intl_designator":"2026-033AA","name":"STARLINK-36606","alt_names":[],"object_type":"PAYLOAD","status":"ACTIVE","operator":null,"country":"US","launch_date":"2026-02-16","launch_site_code":"AFETR","launch_vehicle":null,"mission":null,"orbit_class":"UNKNOWN","rcs_meters":null,"size_class":null,"mass_kg":null,"dimensions":null,"purposes":["comms"],"wikipedia_slug":null,"has_3d_model":false,"image_url":null,"decayed_at":null,"tle_current":{"epoch":"2026-05-25T04:05:48.123168Z","epoch_age_seconds":57547,"freshness":"FRESH","line1":"1 67845U 26033AA  26145.17069587  .00012262  00000+0  45422-3 0  9997","line2":"2 67845  43.0004 194.8716 0000868 273.5573  86.5180 15.27590328 16370","mean_motion":15.27590328,"eccentricity":8.68e-5,"inclination_deg":43.0004,"raan_deg":194.8716,"arg_perigee_deg":273.5573,"mean_anomaly_deg":86.518,"bstar":0.00045422,"rev_number":1637,"period_min":94.266111378521,"perigee_km":482.42262219762,"apogee_km":483.61371873521,"semimajor_km":6861.1551704664,"source":"CELESTRAK","updated_at":"2026-05-25T13:38:21.723238Z"}}}